Regional Weather Roundup
Issued by NWS

Home | Current Version | Previous Version | Text Only | Print | Product List | Glossary On
Versions: 1 2 3 4 5 6 7 8 9 10 11 12 13 14 15 16 17 18 19 20 21 22 23 24 25 26 27 28 29 30 31 32 33 34 35 36 37 38 39 40 41 42 43 44 45 46 47 48 49 50
000
ASUS44 KLIX 060311
RWRLA
LOUISIANA WEATHER ROUNDUP
NATIONAL WEATHER SERVICE NEW ORLEANS LA
1000 PM CDT THU MAY 05 2016

NOTE: "FAIR" INDICATES FEW OR NO CLOUDS BELOW 12,000 FEET WITH NO
      SIGNIFICANT WEATHER AND/OR OBSTRUCTIONS TO VISIBILITY.
      SKY/WX - SKY CONDITION AND SIGNIFICANT WEATHER.
      TMP - AIR TEMPERATURE.    DP   - DEWPOINT TEMPERATURE.
      RH  - RELATIVE HUMIDITY.  PRES - PRESSURE.
      HX  - HEAT INDEX.         WCI  - WIND CHILL INDEX.

*  THESE STATIONS ARE NOT NWS OR FAA STATIONS AND ARE NOT UNDER
   NWS QUALITY CONTROL.

LAZ040-048-061>063-065-066-069-060400-
SOUTHEAST LOUISIANA

CITY           SKY/WX    TMP DP  RH WIND       PRES   REMARKS
N.O. AUDUBON     N/A    N/A N/A N/A MISG        N/A
N.O. INTL ARPT PTCLDY    72  44  36 N20G26    29.95R
N.O. LAKEFRONT CLEAR     70  49  47 N21       29.96R
N.O. DOWNTOWN* FAIR      73  46  38 N6        29.96R
RESERVE*       FAIR      66  51  60 N5        29.97R
SLIDELL        CLEAR     63  51  65 CALM      29.95R
BATON ROUGE    CLEAR     65  45  48 CALM      29.97R
BOOTHVILLE     CLEAR     72  54  53 N9        29.93R
BELLE CHASSE   CLEAR     71  45  39 N8        29.94R
BOGALUSA*      FAIR      61  49  64 NW5       29.98R
GALLIANO*      CLEAR     67  52  58 NW6       29.95R
NEW ROADS*     FAIR      64  51  62 N6        29.98R
GONZALES*      FAIR      64  49  57 CALM      29.96R
HAMMOND*       CLEAR     61  46  59 N3        29.97R
HOUMA*           N/A     68  48  48 NW7       29.95R
PORT FOURCHON* CLEAR     72  55  56 N12       29.95R

$$

LAZ041-044-053-054-060400-
SOUTHWEST LOUISIANA

CITY           SKY/WX    TMP DP  RH WIND       PRES   REMARKS
LAKE CHARLES   CLEAR     69  47  45 N9        29.98R
LAFAYETTE      CLEAR     68  50  52 N5        29.97R
PATTERSON      NOT AVBL
SALT POINT       N/A     67  55  65 CALM      29.95R
NEW IBERIA     CLEAR     66  50  56 N6        29.97R
CHENAULT AIRPK CLEAR     72  46  40 N5        29.93

$$

LAZ027-028-060400-
CENTRAL LOUISIANA

CITY           SKY/WX    TMP DP  RH WIND       PRES   REMARKS
FORT POLK      CLEAR     62  52  70 N2        29.99R
ALEXANDRIA INT CLEAR     62  51  67 CALM      29.97R
ALEXANDRIA     CLEAR     59  52  77 CALM      29.99R

$$

LAZ001-002-060400-
NORTHWEST LOUISIANA

CITY           SKY/WX    TMP DP  RH WIND       PRES   REMARKS
SHREVEPORT     PTCLDY    62  53  72 CALM      30.00R
BARKSDALE AFB  CLEAR     61  53  74 CALM      29.99R
DTN SHREVEPORT CLEAR     65  54  67 CALM      29.99R

$$

LAZ014-016-060400-
NORTHEAST LOUISIANA

CITY           SKY/WX    TMP DP  RH WIND       PRES   REMARKS
MONROE         CLEAR     60  50  69 CALM      29.99R
TALLULAH       CLEAR     60  55  83 N8        29.98R

$$




USA.gov is the U.S. government's official web portal to all federal, state and local government web resources and services.